owner,sensor,date,latitude,longitude,vertical_datum,sea_water_temperature,qcFlag
BP,ioos:station:wmo:42369:2,2021-04-01T20:19:00Z,27.2039,-90.2920,480.5,7.9,11113222
BP,ioos:station:wmo:42369:2,2021-04-01T20:39:00Z,27.2039,-90.2920,479.7,8.0,11113222
BP,ioos:station:wmo:42369:2,2021-04-01T20:59:00Z,27.2037,-90.2916,479.2,8.1,11113222
BP,ioos:station:wmo:42369:2,2021-04-01T21:19:00Z,27.2036,-90.2916,476.9,8.1,11113222
BP,ioos:station:wmo:42369:2,2021-04-01T21:39:00Z,27.2027,-90.2910,475.9,8.1,11113222
BP,ioos:station:wmo:42369:2,2021-04-01T21:59:00Z,27.2038,-90.2921,474.4,8.1,11113222
BP,ioos:station:wmo:42369:2,2021-04-01T22:39:00Z,27.2027,-90.2910,471.5,8.1,11113222
BP,ioos:station:wmo:42369:2,2021-04-01T22:59:00Z,27.2026,-90.2910,471.4,8.1,11113222
BP,ioos:station:wmo:42369:2,2021-04-01T23:19:00Z,27.2026,-90.2909,469.7,8.2,11113222
BP,ioos:station:wmo:42369:2,2021-04-01T23:39:00Z,27.2026,-90.2910,468.7,8.3,11113222
BP,ioos:station:wmo:42369:2,2021-04-01T23:59:00Z,27.2026,-90.2910,468.8,8.3,11113222
BP,ioos:station:wmo:42369:2,2021-04-02T00:19:00Z,27.2022,-90.2913,467.7,8.2,11113222
BP,ioos:station:wmo:42369:2,2021-04-02T00:39:00Z,27.2023,-90.2913,466.4,8.3,11113222
BP,ioos:station:wmo:42369:2,2021-04-02T00:59:00Z,27.2037,-90.2916,466.1,8.3,11113222
BP,ioos:station:wmo:42369:2,2021-04-02T01:39:00Z,27.2022,-90.2913,464.1,8.4,11113222
BP,ioos:station:wmo:42369:2,2021-04-02T01:59:00Z,27.2023,-90.2913,463.1,8.3,11113222
BP,ioos:station:wmo:42369:2,2021-04-02T03:59:00Z,27.2028,-90.2910,463.6,8.2,11113222
BP,ioos:station:wmo:42369:2,2021-04-02T04:19:00Z,27.2028,-90.2909,463.9,8.1,11113222
BP,ioos:station:wmo:42369:2,2021-04-02T04:59:00Z,27.2026,-90.2909,464.8,8.1,11113222
BP,ioos:station:wmo:42369:2,2021-04-02T05:19:00Z,27.2026,-90.2910,465.8,8.0,11113222
BP,ioos:station:wmo:42369:2,2021-04-02T05:59:00Z,27.2026,-90.2915,466.9,8.0,11113222
BP,ioos:station:wmo:42369:2,2021-04-02T06:19:00Z,27.2026,-90.2915,468.2,8.0,11113222
BP,ioos:station:wmo:42369:2,2021-04-02T07:19:00Z,27.2038,-90.2920,469.8,8.0,11113222
BP,ioos:station:wmo:42369:2,2021-04-02T07:39:00Z,27.2038,-90.2920,470.5,8.1,11113222
BP,ioos:station:wmo:42369:2,2021-04-02T07:59:00Z,27.2038,-90.2920,470.9,8.1,11113222
BP,ioos:station:wmo:42369:2,2021-04-02T08:19:00Z,27.2039,-90.2920,471.2,8.1,11113222
BP,ioos:station:wmo:42369:2,2021-04-02T08:39:00Z,27.2040,-90.2920,471.5,8.1,11113222
BP,ioos:station:wmo:42369:2,2021-04-02T08:59:00Z,27.2023,-90.2912,472.7,8.0,11113222
BP,ioos:station:wmo:42369:2,2021-04-02T09:19:00Z,27.2023,-90.2913,473.4,8.0,11113222
BP,ioos:station:wmo:42369:2,2021-04-02T09:39:00Z,27.2023,-90.2913,473.1,8.0,11113222
BP,ioos:station:wmo:42369:2,2021-04-02T10:19:00Z,27.2040,-90.2919,473.5,8.1,11113222
BP,ioos:station:wmo:42369:2,2021-04-02T10:39:00Z,27.2043,-90.2919,472.8,8.1,11113222
BP,ioos:station:wmo:42369:2,2021-04-02T10:59:00Z,27.2046,-90.2917,473.7,8.1,11113222
BP,ioos:station:wmo:42369:2,2021-04-02T11:19:00Z,27.2046,-90.2917,472.9,8.1,11113222
BP,ioos:station:wmo:42369:2,2021-04-02T11:39:00Z,27.2047,-90.2916,472.2,8.1,11113222
BP,ioos:station:wmo:42369:2,2021-04-02T11:59:00Z,27.2047,-90.2916,472.4,8.1,11113222
BP,ioos:station:wmo:42369:2,2021-04-02T12:19:00Z,27.2047,-90.2916,471.7,8.2,11113222
BP,ioos:station:wmo:42369:2,2021-04-02T12:39:00Z,27.2046,-90.2917,470.6,8.3,11113222
BP,ioos:station:wmo:42369:2,2021-04-02T12:59:00Z,27.2024,-90.2914,471.2,8.2,11113222
BP,ioos:station:wmo:42369:2,2021-04-02T13:19:00Z,27.2025,-90.2914,470.6,8.2,11113222
BP,ioos:station:wmo:42369:2,2021-04-02T13:39:00Z,27.2026,-90.2914,469.8,8.2,11113222
BP,ioos:station:wmo:42369:2,2021-04-02T13:59:00Z,27.2026,-90.2915,469.8,8.2,11113222
BP,ioos:station:wmo:42369:2,2021-04-02T14:19:00Z,27.2026,-90.2915,469.5,8.3,11113222
BP,ioos:station:wmo:42369:2,2021-04-02T14:39:00Z,27.2047,-90.2917,469.6,8.3,11113222
BP,ioos:station:wmo:42369:2,2021-04-02T14:59:00Z,27.2047,-90.2916,469.1,8.3,11113222
BP,ioos:station:wmo:42369:2,2021-04-02T15:19:00Z,27.2047,-90.2916,468.0,8.2,11113222
BP,ioos:station:wmo:42369:2,2021-04-02T15:39:00Z,27.2047,-90.2916,468.1,8.2,11113222
BP,ioos:station:wmo:42369:2,2021-04-02T15:59:00Z,27.2048,-90.2916,467.7,8.2,11113222
BP,ioos:station:wmo:42369:2,2021-04-02T16:19:00Z,27.2048,-90.2916,468.8,8.2,11113222
BP,ioos:station:wmo:42369:2,2021-04-02T16:39:00Z,27.2048,-90.2916,468.0,8.1,11113222
BP,ioos:station:wmo:42369:2,2021-04-02T16:59:00Z,27.2033,-90.2917,467.6,8.1,11113222
BP,ioos:station:wmo:42369:2,2021-04-02T17:19:00Z,27.2036,-90.2919,468.7,8.2,11113222
BP,ioos:station:wmo:42369:2,2021-04-02T17:39:00Z,27.2037,-90.2919,468.4,8.2,11113222
BP,ioos:station:wmo:42369:2,2021-04-02T17:59:00Z,27.2038,-90.2920,468.5,8.1,11113222
BP,ioos:station:wmo:42369:2,2021-04-02T18:19:00Z,27.2039,-90.2920,468.8,8.1,11113222
BP,ioos:station:wmo:42369:2,2021-04-02T18:59:00Z,27.2043,-90.2919,466.8,8.1,11113222
BP,ioos:station:wmo:42369:2,2021-04-02T19:19:00Z,27.2044,-90.2919,466.5,8.1,11113222
BP,ioos:station:wmo:42369:2,2021-04-02T19:39:00Z,27.2048,-90.2916,464.6,8.1,11113222
BP,ioos:station:wmo:42369:2,2021-04-02T19:59:00Z,27.2048,-90.2916,464.9,8.0,11113222
BP,ioos:station:wmo:42369:2,2021-04-02T20:19:00Z,27.2048,-90.2916,463.4,8.0,11113222
BP,ioos:station:wmo:42369:2,2021-04-02T20:39:00Z,27.2048,-90.2915,463.9,7.9,11113222
BP,ioos:station:wmo:42369:2,2021-04-02T20:59:00Z,27.2047,-90.2915,463.2,7.9,11113222
BP,ioos:station:wmo:42369:2,2021-04-02T21:19:00Z,27.2047,-90.2915,463.3,7.8,11113222
BP,ioos:station:wmo:42369:2,2021-04-02T21:39:00Z,27.2047,-90.2915,462.2,7.8,11113222
BP,ioos:station:wmo:42369:2,2021-04-02T21:59:00Z,27.2046,-90.2917,462.4,7.8,11113222
BP,ioos:station:wmo:42369:2,2021-04-02T22:19:00Z,27.2046,-90.2917,461.2,7.9,11113222
BP,ioos:station:wmo:42369:2,2021-04-02T22:39:00Z,27.2048,-90.2916,461.4,8.0,11113222
BP,ioos:station:wmo:42369:2,2021-04-02T23:19:00Z,27.2048,-90.2915,460.2,8.0,11113222
BP,ioos:station:wmo:42369:2,2021-04-02T23:39:00Z,27.2047,-90.2915,460.1,8.1,11113222
BP,ioos:station:wmo:42369:2,2021-04-02T23:59:00Z,27.2046,-90.2914,459.1,8.2,11113222
BP,ioos:station:wmo:42369:2,2021-04-03T00:19:00Z,27.2045,-90.2914,459.5,8.1,11113222
BP,ioos:station:wmo:42369:2,2021-04-03T00:39:00Z,27.2043,-90.2914,459.8,8.2,11113222
BP,ioos:station:wmo:42369:2,2021-04-03T00:59:00Z,27.2043,-90.2913,459.2,8.1,11113222
BP,ioos:station:wmo:42369:2,2021-04-03T01:19:00Z,27.2042,-90.2913,459.0,8.2,11113222
BP,ioos:station:wmo:42369:2,2021-04-03T01:39:00Z,27.2042,-90.2914,458.9,8.2,11113222
BP,ioos:station:wmo:42369:2,2021-04-03T01:59:00Z,27.2041,-90.2913,459.6,8.2,11113222
BP,ioos:station:wmo:42369:2,2021-04-03T02:19:00Z,27.2041,-90.2913,458.5,8.3,11113222
BP,ioos:station:wmo:42369:2,2021-04-03T02:39:00Z,27.2041,-90.2913,459.2,8.3,11113222
BP,ioos:station:wmo:42369:2,2021-04-03T02:59:00Z,27.2040,-90.2912,459.3,8.3,11113222
BP,ioos:station:wmo:42369:2,2021-04-03T03:19:00Z,27.2040,-90.2912,458.7,8.3,11113222
BP,ioos:station:wmo:42369:2,2021-04-03T03:39:00Z,27.2038,-90.2910,457.9,8.3,11113222
BP,ioos:station:wmo:42369:2,2021-04-03T03:59:00Z,27.2038,-90.2910,458.2,8.2,11113222
BP,ioos:station:wmo:42369:2,2021-04-03T04:19:00Z,27.2038,-90.2910,458.1,8.2,11113222
BP,ioos:station:wmo:42369:2,2021-04-03T04:39:00Z,27.2038,-90.2910,458.8,8.2,11113222
BP,ioos:station:wmo:42369:2,2021-04-03T04:59:00Z,27.2038,-90.2911,458.4,8.2,11113222
BP,ioos:station:wmo:42369:2,2021-04-03T05:19:00Z,27.2037,-90.2910,458.4,8.2,11113222
BP,ioos:station:wmo:42369:2,2021-04-03T05:39:00Z,27.2036,-90.2910,458.7,8.2,11113222
BP,ioos:station:wmo:42369:2,2021-04-03T05:59:00Z,27.2035,-90.2910,459.5,8.1,11113222
BP,ioos:station:wmo:42369:2,2021-04-03T06:19:00Z,27.2036,-90.2910,460.1,8.2,11113222
BP,ioos:station:wmo:42369:2,2021-04-03T06:39:00Z,27.2035,-90.2911,461.1,8.1,11113222
BP,ioos:station:wmo:42369:2,2021-04-03T06:59:00Z,27.2034,-90.2910,461.7,8.2,11113222
BP,ioos:station:wmo:42369:2,2021-04-03T07:19:00Z,27.2034,-90.2911,461.9,8.2,11113222
BP,ioos:station:wmo:42369:2,2021-04-03T07:39:00Z,27.2034,-90.2911,462.9,8.2,11113222
BP,ioos:station:wmo:42369:2,2021-04-03T07:59:00Z,27.2034,-90.2912,463.3,8.1,11113222
BP,ioos:station:wmo:42369:2,2021-04-03T08:19:00Z,27.2035,-90.2912,464.0,8.0,11113222
BP,ioos:station:wmo:42369:2,2021-04-03T08:39:00Z,27.2035,-90.2913,465.8,7.9,11113222
BP,ioos:station:wmo:42369:2,2021-04-03T08:59:00Z,27.2035,-90.2913,465.1,8.0,11113222
BP,ioos:station:wmo:42369:2,2021-04-03T09:19:00Z,27.2036,-90.2914,464.8,8.1,11113222
BP,ioos:station:wmo:42369:2,2021-04-03T09:39:00Z,27.2036,-90.2914,465.9,8.0,11113222
BP,ioos:station:wmo:42369:2,2021-04-03T10:19:00Z,27.2036,-90.2913,465.8,8.0,11113222
BP,ioos:station:wmo:42369:2,2021-04-03T10:39:00Z,27.2036,-90.2914,466.2,7.9,11113222
BP,ioos:station:wmo:42369:2,2021-04-03T10:59:00Z,27.2035,-90.2914,466.4,7.9,11113222
BP,ioos:station:wmo:42369:2,2021-04-03T11:19:00Z,27.2035,-90.2914,466.6,8.0,11113222
BP,ioos:station:wmo:42369:2,2021-04-03T11:39:00Z,27.2035,-90.2914,467.4,7.9,11113222
BP,ioos:station:wmo:42369:2,2021-04-03T11:59:00Z,27.2036,-90.2914,467.1,7.8,11113222
BP,ioos:station:wmo:42369:2,2021-04-03T12:19:00Z,27.2037,-90.2915,466.3,7.8,11113222
BP,ioos:station:wmo:42369:2,2021-04-03T12:39:00Z,27.2037,-90.2915,466.6,7.8,11113222
BP,ioos:station:wmo:42369:2,2021-04-03T12:59:00Z,27.2038,-90.2915,466.5,7.9,11113222
BP,ioos:station:wmo:42369:2,2021-04-03T13:19:00Z,27.2038,-90.2915,466.5,7.9,11113222
BP,ioos:station:wmo:42369:2,2021-04-03T13:39:00Z,27.2038,-90.2915,465.7,7.9,11113222
BP,ioos:station:wmo:42369:2,2021-04-03T13:59:00Z,27.2039,-90.2915,465.7,7.9,11113222
BP,ioos:station:wmo:42369:2,2021-04-03T14:19:00Z,27.2040,-90.2915,465.5,7.8,11113222
BP,ioos:station:wmo:42369:2,2021-04-03T14:39:00Z,27.2041,-90.2915,465.0,7.8,11113222
BP,ioos:station:wmo:42369:2,2021-04-03T14:59:00Z,27.2041,-90.2915,464.1,7.8,11113222
BP,ioos:station:wmo:42369:2,2021-04-03T15:19:00Z,27.2041,-90.2915,464.5,7.9,11113222
BP,ioos:station:wmo:42369:2,2021-04-03T15:39:00Z,27.2042,-90.2915,465.1,7.9,11113222
BP,ioos:station:wmo:42369:2,2021-04-03T15:59:00Z,27.2043,-90.2916,464.9,7.9,11113222
BP,ioos:station:wmo:42369:2,2021-04-03T16:19:00Z,27.2043,-90.2916,464.4,8.0,11113222
BP,ioos:station:wmo:42369:2,2021-04-03T16:39:00Z,27.2044,-90.2917,464.7,8.1,11113222
BP,ioos:station:wmo:42369:2,2021-04-03T16:59:00Z,27.2044,-90.2917,464.5,8.1,11113222
BP,ioos:station:wmo:42369:2,2021-04-03T17:19:00Z,27.2044,-90.2917,464.6,8.1,11113222
BP,ioos:station:wmo:42369:2,2021-04-03T17:39:00Z,27.2045,-90.2918,464.0,8.2,11113222
BP,ioos:station:wmo:42369:2,2021-04-03T17:59:00Z,27.2045,-90.2918,465.2,8.3,11113222
BP,ioos:station:wmo:42369:2,2021-04-03T18:19:00Z,27.2045,-90.2919,465.0,8.3,11113222
BP,ioos:station:wmo:42369:2,2021-04-03T18:39:00Z,27.2046,-90.2919,464.8,8.2,11113222
BP,ioos:station:wmo:42369:2,2021-04-03T19:19:00Z,27.2046,-90.2918,464.1,8.1,11113222
BP,ioos:station:wmo:42369:2,2021-04-03T19:39:00Z,27.2047,-90.2918,465.0,8.1,11113222
BP,ioos:station:wmo:42369:2,2021-04-03T19:59:00Z,27.2048,-90.2918,463.8,8.2,11113222
BP,ioos:station:wmo:42369:2,2021-04-03T20:19:00Z,27.2048,-90.2918,462.5,8.1,11113222
BP,ioos:station:wmo:42369:2,2021-04-03T20:39:00Z,27.2049,-90.2918,463.5,8.1,11113222
BP,ioos:station:wmo:42369:2,2021-04-03T20:59:00Z,27.2049,-90.2918,463.4,8.0,11113222
BP,ioos:station:wmo:42369:2,2021-04-03T21:19:00Z,27.2049,-90.2918,463.5,8.0,11113222
BP,ioos:station:wmo:42369:2,2021-04-03T21:39:00Z,27.2049,-90.2917,462.5,7.9,11113222
BP,ioos:station:wmo:42369:2,2021-04-03T21:59:00Z,27.2049,-90.2917,461.8,7.9,11113222
BP,ioos:station:wmo:42369:2,2021-04-03T22:19:00Z,27.2049,-90.2917,462.5,7.9,11113222
BP,ioos:station:wmo:42369:2,2021-04-03T22:39:00Z,27.2048,-90.2917,462.5,7.9,11113222
BP,ioos:station:wmo:42369:2,2021-04-03T22:59:00Z,27.2047,-90.2917,461.9,7.9,11113222
BP,ioos:station:wmo:42369:2,2021-04-03T23:19:00Z,27.2046,-90.2916,462.1,7.9,11113222
BP,ioos:station:wmo:42369:2,2021-04-03T23:39:00Z,27.2045,-90.2916,462.0,7.9,11113222
BP,ioos:station:wmo:42369:2,2021-04-03T23:59:00Z,27.2046,-90.2916,460.8,8.0,11113222
BP,ioos:station:wmo:42369:2,2021-04-04T00:19:00Z,27.2046,-90.2916,460.5,8.0,11113222
BP,ioos:station:wmo:42369:2,2021-04-04T00:39:00Z,27.2045,-90.2915,459.9,8.0,11113222
BP,ioos:station:wmo:42369:2,2021-04-04T00:59:00Z,27.2044,-90.2915,459.6,8.0,11113222
BP,ioos:station:wmo:42369:2,2021-04-04T01:19:00Z,27.2044,-90.2915,459.3,8.1,11113222
BP,ioos:station:wmo:42369:2,2021-04-04T01:39:00Z,27.2042,-90.2914,458.9,8.1,11113222
BP,ioos:station:wmo:42369:2,2021-04-04T01:59:00Z,27.2042,-90.2914,459.3,8.1,11113222
BP,ioos:station:wmo:42369:2,2021-04-04T02:19:00Z,27.2042,-90.2914,458.6,8.1,11113222
BP,ioos:station:wmo:42369:2,2021-04-04T02:39:00Z,27.2041,-90.2914,459.4,8.2,11113222
BP,ioos:station:wmo:42369:2,2021-04-04T02:59:00Z,27.2040,-90.2914,459.9,8.2,11113222
BP,ioos:station:wmo:42369:2,2021-04-04T03:19:00Z,27.2039,-90.2913,459.7,8.2,11113222
BP,ioos:station:wmo:42369:2,2021-04-04T03:39:00Z,27.2038,-90.2913,460.1,8.2,11113222
BP,ioos:station:wmo:42369:2,2021-04-04T03:59:00Z,27.2038,-90.2913,459.8,8.2,11113222
BP,ioos:station:wmo:42369:2,2021-04-04T04:19:00Z,27.2037,-90.2912,459.1,8.3,11113222
BP,ioos:station:wmo:42369:2,2021-04-04T04:39:00Z,27.2035,-90.2911,459.2,8.2,11113222
BP,ioos:station:wmo:42369:2,2021-04-04T04:59:00Z,27.2035,-90.2911,460.1,8.2,11113222
BP,ioos:station:wmo:42369:2,2021-04-04T05:19:00Z,27.2035,-90.2912,460.2,8.2,11113222
BP,ioos:station:wmo:42369:2,2021-04-04T05:39:00Z,27.2035,-90.2911,460.6,8.2,11113222
BP,ioos:station:wmo:42369:2,2021-04-04T06:19:00Z,27.2035,-90.2911,460.0,8.3,11113222
BP,ioos:station:wmo:42369:2,2021-04-04T06:39:00Z,27.2035,-90.2912,459.9,8.3,11113222
BP,ioos:station:wmo:42369:2,2021-04-04T06:59:00Z,27.2035,-90.2912,461.1,8.3,11113222
BP,ioos:station:wmo:42369:2,2021-04-04T07:19:00Z,27.2035,-90.2912,461.5,8.3,11113222
BP,ioos:station:wmo:42369:2,2021-04-04T07:39:00Z,27.2036,-90.2913,461.1,8.2,11113222
BP,ioos:station:wmo:42369:2,2021-04-04T07:59:00Z,27.2036,-90.2913,461.8,8.2,11113222
BP,ioos:station:wmo:42369:2,2021-04-04T08:19:00Z,27.2037,-90.2913,462.2,8.1,11113222
BP,ioos:station:wmo:42369:2,2021-04-04T08:39:00Z,27.2037,-90.2913,461.9,8.1,11113222
BP,ioos:station:wmo:42369:2,2021-04-04T08:59:00Z,27.2036,-90.2913,463.0,8.0,11113222
BP,ioos:station:wmo:42369:2,2021-04-04T09:19:00Z,27.2036,-90.2913,463.1,8.0,11113222
BP,ioos:station:wmo:42369:2,2021-04-04T09:39:00Z,27.2036,-90.2914,463.9,8.0,11113222
BP,ioos:station:wmo:42369:2,2021-04-04T09:59:00Z,27.2036,-90.2914,463.7,8.0,11113222
BP,ioos:station:wmo:42369:2,2021-04-04T10:19:00Z,27.2036,-90.2914,464.9,8.0,11113222
BP,ioos:station:wmo:42369:2,2021-04-04T10:39:00Z,27.2036,-90.2914,466.0,7.9,11113222
BP,ioos:station:wmo:42369:2,2021-04-04T10:59:00Z,27.2036,-90.2914,465.7,7.9,11113222
BP,ioos:station:wmo:42369:2,2021-04-04T11:19:00Z,27.2035,-90.2914,465.6,7.9,11113222
BP,ioos:station:wmo:42369:2,2021-04-04T11:39:00Z,27.2035,-90.2914,465.6,7.9,11113222
BP,ioos:station:wmo:42369:2,2021-04-04T12:19:00Z,27.2036,-90.2914,465.3,8.0,11113222
BP,ioos:station:wmo:42369:2,2021-04-04T12:39:00Z,27.2036,-90.2914,464.7,7.9,11113222
BP,ioos:station:wmo:42369:2,2021-04-04T12:59:00Z,27.2037,-90.2914,464.9,7.9,11113222
BP,ioos:station:wmo:42369:2,2021-04-04T13:19:00Z,27.2037,-90.2914,464.7,7.9,11113222
BP,ioos:station:wmo:42369:2,2021-04-04T13:39:00Z,27.2038,-90.2914,465.0,7.9,11113222
BP,ioos:station:wmo:42369:2,2021-04-04T13:59:00Z,27.2038,-90.2914,464.5,7.9,11113222
BP,ioos:station:wmo:42369:2,2021-04-04T14:19:00Z,27.2038,-90.2914,464.7,8.0,11113222
BP,ioos:station:wmo:42369:2,2021-04-04T14:39:00Z,27.2039,-90.2914,464.6,8.0,11113222
BP,ioos:station:wmo:42369:2,2021-04-04T14:59:00Z,27.2039,-90.2915,464.3,8.0,11113222
BP,ioos:station:wmo:42369:2,2021-04-04T15:19:00Z,27.2040,-90.2915,464.0,8.0,11113222
BP,ioos:station:wmo:42369:2,2021-04-04T15:39:00Z,27.2040,-90.2915,463.4,8.1,11113222
BP,ioos:station:wmo:42369:2,2021-04-04T15:59:00Z,27.2041,-90.2915,463.3,8.1,11113222
BP,ioos:station:wmo:42369:2,2021-04-04T16:19:00Z,27.2041,-90.2915,462.7,8.1,11113222
BP,ioos:station:wmo:42369:2,2021-04-04T16:39:00Z,27.2041,-90.2915,463.2,8.0,11113222
BP,ioos:station:wmo:42369:2,2021-04-04T16:59:00Z,27.2042,-90.2915,462.7,8.0,11113222
BP,ioos:station:wmo:42369:2,2021-04-04T17:19:00Z,27.2042,-90.2915,462.0,8.1,11113222
BP,ioos:station:wmo:42369:2,2021-04-04T17:39:00Z,27.2042,-90.2915,461.9,8.1,11113222
BP,ioos:station:wmo:42369:2,2021-04-04T17:59:00Z,27.2043,-90.2915,461.3,8.0,11113222
BP,ioos:station:wmo:42369:2,2021-04-04T18:19:00Z,27.2043,-90.2915,460.5,8.0,11113222
BP,ioos:station:wmo:42369:2,2021-04-04T18:39:00Z,27.2043,-90.2915,461.0,8.0,11113222
BP,ioos:station:wmo:42369:2,2021-04-04T18:59:00Z,27.2044,-90.2916,460.5,7.9,11113222
BP,ioos:station:wmo:42369:2,2021-04-04T19:19:00Z,27.2044,-90.2916,460.4,8.0,11113222
BP,ioos:station:wmo:42369:2,2021-04-04T19:39:00Z,27.2044,-90.2916,460.5,8.0,11113222
BP,ioos:station:wmo:42369:2,2021-04-04T19:59:00Z,27.2044,-90.2916,461.5,8.1,11113222
BP,ioos:station:wmo:42369:2,2021-04-04T20:39:00Z,27.2043,-90.2916,460.7,8.0,11113222
BP,ioos:station:wmo:42369:2,2021-04-04T21:19:00Z,27.2044,-90.2916,460.6,8.0,11113222
BP,ioos:station:wmo:42369:2,2021-04-04T21:39:00Z,27.2043,-90.2916,461.0,8.0,11113222
BP,ioos:station:wmo:42369:2,2021-04-04T21:59:00Z,27.2043,-90.2916,461.5,8.0,11113222
BP,ioos:station:wmo:42369:2,2021-04-04T22:19:00Z,27.2043,-90.2916,461.3,8.0,11113222
BP,ioos:station:wmo:42369:2,2021-04-04T22:39:00Z,27.2043,-90.2916,460.7,8.0,11113222
BP,ioos:station:wmo:42369:2,2021-04-04T22:59:00Z,27.2043,-90.2916,460.3,8.1,11113222
BP,ioos:station:wmo:42369:2,2021-04-04T23:19:00Z,27.2044,-90.2916,460.5,8.1,11113222
BP,ioos:station:wmo:42369:2,2021-04-04T23:39:00Z,27.2044,-90.2915,459.8,8.1,11113222
BP,ioos:station:wmo:42369:2,2021-04-04T23:59:00Z,27.2044,-90.2915,460.4,8.1,11113222
BP,ioos:station:wmo:42369:2,2021-04-05T00:19:00Z,27.2044,-90.2915,460.5,8.1,11113222
BP,ioos:station:wmo:42369:2,2021-04-05T00:39:00Z,27.2043,-90.2915,459.9,8.1,11113222
BP,ioos:station:wmo:42369:2,2021-04-05T01:19:00Z,27.2043,-90.2914,459.2,8.1,11113222
BP,ioos:station:wmo:42369:2,2021-04-05T01:39:00Z,27.2043,-90.2914,459.4,8.1,11113222
BP,ioos:station:wmo:42369:2,2021-04-05T02:19:00Z,27.2043,-90.2913,458.5,8.1,11113222
BP,ioos:station:wmo:42369:2,2021-04-05T03:19:00Z,27.2040,-90.2912,457.8,8.0,11113222
BP,ioos:station:wmo:42369:2,2021-04-05T03:39:00Z,27.2040,-90.2912,458.2,8.0,11113222
BP,ioos:station:wmo:42369:2,2021-04-05T04:19:00Z,27.2039,-90.2911,457.2,8.0,11113222
BP,ioos:station:wmo:42369:2,2021-04-05T04:39:00Z,27.2038,-90.2910,457.5,8.0,11113222
BP,ioos:station:wmo:42369:2,2021-04-05T05:19:00Z,27.2037,-90.2909,457.6,8.0,11113222
BP,ioos:station:wmo:42369:2,2021-04-05T05:39:00Z,27.2038,-90.2909,457.3,8.0,11113222
BP,ioos:station:wmo:42369:2,2021-04-05T07:39:00Z,27.2038,-90.2909,457.7,8.1,11113222
BP,ioos:station:wmo:42369:2,2021-04-05T09:39:00Z,27.2041,-90.2911,460.2,8.0,11113222
BP,ioos:station:wmo:42369:2,2021-04-05T10:59:00Z,27.2043,-90.2911,459.8,8.1,11113222
BP,ioos:station:wmo:42369:2,2021-04-05T11:19:00Z,27.2043,-90.2912,459.3,8.1,11113222
BP,ioos:station:wmo:42369:2,2021-04-05T11:39:00Z,27.2044,-90.2912,459.3,8.1,11113222
BP,ioos:station:wmo:42369:2,2021-04-05T12:19:00Z,27.2045,-90.2912,460.6,8.1,11113222
BP,ioos:station:wmo:42369:2,2021-04-05T12:39:00Z,27.2045,-90.2913,460.3,8.1,11113222
BP,ioos:station:wmo:42369:2,2021-04-05T12:59:00Z,27.2046,-90.2913,460.3,8.1,11113222
BP,ioos:station:wmo:42369:2,2021-04-05T13:19:00Z,27.2046,-90.2913,460.0,8.0,11113222
BP,ioos:station:wmo:42369:2,2021-04-05T13:39:00Z,27.2047,-90.2913,460.9,8.0,11113222
BP,ioos:station:wmo:42369:2,2021-04-05T13:59:00Z,27.2047,-90.2913,460.7,8.1,11113222
BP,ioos:station:wmo:42369:2,2021-04-05T14:19:00Z,27.2047,-90.2913,460.9,8.0,11113222
BP,ioos:station:wmo:42369:2,2021-04-05T14:39:00Z,27.2048,-90.2914,460.5,8.0,11113222
BP,ioos:station:wmo:42369:2,2021-04-05T14:59:00Z,27.2048,-90.2914,461.0,8.0,11113222
BP,ioos:station:wmo:42369:2,2021-04-05T15:19:00Z,27.2049,-90.2914,462.2,8.0,11113222
BP,ioos:station:wmo:42369:2,2021-04-05T15:39:00Z,27.2049,-90.2915,462.0,8.0,11113222
BP,ioos:station:wmo:42369:2,2021-04-05T15:59:00Z,27.2050,-90.2915,462.0,8.0,11113222
BP,ioos:station:wmo:42369:2,2021-04-05T16:19:00Z,27.2050,-90.2915,461.9,8.1,11113222
BP,ioos:station:wmo:42369:2,2021-04-05T16:39:00Z,27.2050,-90.2916,462.4,8.1,11113222
BP,ioos:station:wmo:42369:2,2021-04-05T16:59:00Z,27.2051,-90.2916,461.5,8.0,11113222
BP,ioos:station:wmo:42369:2,2021-04-05T17:19:00Z,27.2052,-90.2916,462.3,8.0,11113222
BP,ioos:station:wmo:42369:2,2021-04-05T17:59:00Z,27.2054,-90.2916,461.4,8.0,11113222
BP,ioos:station:wmo:42369:2,2021-04-05T18:19:00Z,27.2055,-90.2916,462.2,8.0,11113222
BP,ioos:station:wmo:42369:2,2021-04-05T18:39:00Z,27.2056,-90.2916,461.3,7.9,11113222
BP,ioos:station:wmo:42369:2,2021-04-05T18:59:00Z,27.2057,-90.2915,460.5,7.9,11113222
BP,ioos:station:wmo:42369:2,2021-04-05T19:19:00Z,27.2059,-90.2915,459.3,7.9,11113222
BP,ioos:station:wmo:42369:2,2021-04-05T19:59:00Z,27.2061,-90.2914,457.9,7.9,11113222
BP,ioos:station:wmo:42369:2,2021-04-05T20:19:00Z,27.2061,-90.2913,456.8,7.9,11113222
BP,ioos:station:wmo:42369:2,2021-04-05T20:39:00Z,27.2062,-90.2913,456.3,7.9,11113222
BP,ioos:station:wmo:42369:2,2021-04-05T20:59:00Z,27.2063,-90.2913,456.2,7.9,11113222
BP,ioos:station:wmo:42369:2,2021-04-05T21:19:00Z,27.2064,-90.2913,455.2,7.9,11113222
BP,ioos:station:wmo:42369:2,2021-04-05T21:39:00Z,27.2065,-90.2913,455.7,8.0,11113222
BP,ioos:station:wmo:42369:2,2021-04-05T21:59:00Z,27.2066,-90.2913,455.5,8.0,11113222
BP,ioos:station:wmo:42369:2,2021-04-05T22:19:00Z,27.2066,-90.2912,455.2,8.0,11113222
BP,ioos:station:wmo:42369:2,2021-04-05T22:39:00Z,27.2067,-90.2912,455.0,7.9,11113222
BP,ioos:station:wmo:42369:2,2021-04-05T22:59:00Z,27.2068,-90.2912,455.4,8.0,11113222
BP,ioos:station:wmo:42369:2,2021-04-06T00:59:00Z,27.2073,-90.2912,456.3,8.4,11113222
BP,ioos:station:wmo:42369:2,2021-04-06T01:59:00Z,27.2073,-90.2912,456.1,8.3,11113222
BP,ioos:station:wmo:42369:2,2021-04-06T02:59:00Z,27.2071,-90.2911,456.0,8.1,11113222
BP,ioos:station:wmo:42369:2,2021-04-06T04:59:00Z,27.2069,-90.2911,457.4,7.9,11113222
BP,ioos:station:wmo:42369:2,2021-04-06T05:59:00Z,27.2066,-90.2910,457.7,8.0,11113222
BP,ioos:station:wmo:42369:2,2021-04-06T06:59:00Z,27.2065,-90.2910,457.7,8.1,11113222
BP,ioos:station:wmo:42369:2,2021-04-06T08:39:00Z,27.2062,-90.2911,457.9,8.1,11113222
BP,ioos:station:wmo:42369:2,2021-04-06T10:59:00Z,27.2062,-90.2911,457.6,8.0,11113222
BP,ioos:station:wmo:42369:2,2021-04-06T11:59:00Z,27.2061,-90.2912,458.5,8.1,11113222
BP,ioos:station:wmo:42369:2,2021-04-06T12:39:00Z,27.2060,-90.2911,458.7,8.1,11113222
BP,ioos:station:wmo:42369:2,2021-04-06T12:59:00Z,27.2061,-90.2912,459.3,8.1,11113222
BP,ioos:station:wmo:42369:2,2021-04-06T13:19:00Z,27.2061,-90.2912,458.5,8.2,11113222
BP,ioos:station:wmo:42369:2,2021-04-06T13:39:00Z,27.2061,-90.2913,458.8,8.1,11113222
BP,ioos:station:wmo:42369:2,2021-04-06T13:59:00Z,27.2061,-90.2912,458.3,8.1,11113222
BP,ioos:station:wmo:42369:2,2021-04-06T14:19:00Z,27.2061,-90.2912,457.7,8.0,11113222
BP,ioos:station:wmo:42369:2,2021-04-06T14:39:00Z,27.2061,-90.2912,457.3,8.0,11113222
BP,ioos:station:wmo:42369:2,2021-04-06T14:59:00Z,27.2062,-90.2911,456.9,8.1,11113222
BP,ioos:station:wmo:42369:2,2021-04-06T15:19:00Z,27.2062,-90.2912,457.0,8.1,11113222
BP,ioos:station:wmo:42369:2,2021-04-06T15:39:00Z,27.2061,-90.2912,457.3,8.1,11113222
BP,ioos:station:wmo:42369:2,2021-04-06T15:59:00Z,27.2061,-90.2912,455.6,8.1,11113222
BP,ioos:station:wmo:42369:2,2021-04-06T16:19:00Z,27.2061,-90.2912,455.7,8.2,11113222
BP,ioos:station:wmo:42369:2,2021-04-06T16:39:00Z,27.2061,-90.2912,455.2,8.2,11113222
BP,ioos:station:wmo:42369:2,2021-04-06T16:59:00Z,27.2061,-90.2912,455.6,8.1,11113222